{"data":{"norad_id":42814,"epoch":"2026-09-19T18:36:38.867040Z","epoch_age_seconds":88301,"freshness":"FRESH","line1":"1 42814U 17040A   26262.77544985  .00000148  00000+0  00000+0 0  9999","line2":"2 42814   0.0611  37.1744 0001816  63.6421 216.0462  1.00270167 33756","mean_motion":1.00270167,"eccentricity":0.0001816,"inclination_deg":0.0611,"raan_deg":37.1744,"arg_perigee_deg":63.6421,"mean_anomaly_deg":216.0462,"bstar":0,"rev_number":3375,"period_min":1436.1200774703,"perigee_km":35779.391353729,"apogee_km":35794.705749121,"semimajor_km":42165.185551425,"source":"CELESTRAK","updated_at":"2026-09-20T09:00:35.255021Z"}}